Location: Chuathbaluk
(61.5726°N, 159.2454°W)
Time: 03:29:44
(UTC+00:00)

S-56A Canister/Altair - Pass Details

Date: 04 December 2020
Orbit: 633 x 2499 km, 38.9° (Epoch: 23 January)

Event Time Altitude Azimuth Distance (km) Brightness Sun altitude
Rises 06:56:28 0° 241° (WSW) 5,561 12.4 -36.9°
Reaches altitude 10° 07:02:04 10° 225° (SW) 4,194 11.4 -37.5°
Enters shadow 07:06:52 16° 199° (SSW) 3,336 10.6 -38.0°
Maximum altitude 07:08:04 17° 191° (S) 3,217 - -38.2°
Drops below altitude 10° 07:13:00 10° 155° (SSE) 3,314 - -38.7°
Sets 07:16:40 0° 135° (SE) 3,959 - -39.1°
